Theta_e
312 312 312 312 312 312 312 312 312 312 313 313 312 312 313 313 313 313 312 313 313 313 313 313 313 314 313 314 313 313 313 306 304 303 302 306 313 324 325 325 325 327 323 310 301 299 298 301 301 302 300 299 297 297 300 301 301 300 294 292 290 292 292 296 297 298 300 299 301 302 303 303 302 307 309 312 313 317 319 318 320 323 326 327 328 335 337 336
312 311 311 312 312 312 312 312 313 313 313 312 313 312 313 313 312 313 313 313 313 313 313 313 313 313 313 313 313 314 310 305 302 302 302 311 321 325 325 325 324 325 324 301 300 300 299 299 301 301 298 295 300 296 301 297 302 296 293 292 290 294 295 299 299 300 300 300 302 303 305 304 304 307 309 306 306 316 315 317 322 320 323 328 330 335 336 335
311 311 311 311 311 312 312 312 313 312 312 312 313 313 313 313 313 312 312 313 313 313 313 313 313 313 313 313 314 314 307 303 302 300 306 323 321 322 326 325 327 324 310 300 302 303 300 300 301 300 298 295 296 295 299 297 301 298 294 291 293 296 296 299 300 300 301 301 302 302 304 304 305 306 309 306 307 315 313 315 320 319 321 327 331 334 334 334
311 312 312 312 312 312 313 312 312 312 312 313 312 312 313 312 312 312 313 313 313 313 313 313 313 313 313 314 314 310 305 301 297 303 309 317 324 321 325 327 326 324 311 304 304 303 303 302 300 299 297 294 295 298 295 298 296 297 295 292 294 296 295 298 301 300 302 302 301 301 302 301 304 304 306 306 310 312 314 318 320 321 323 328 332 333 333 332
312 312 311 311 311 312 312 312 312 312 312 312 312 312 312 313 313 313 313 313 313 313 313 313 313 313 313 314 313 307 301 291 297 304 308 321 321 325 325 326 328 317 306 305 303 303 303 300 299 299 296 290 294 294 295 297 300 297 295 297 297 295 296 300 300 301 301 302 301 300 299 300 304 303 303 305 305 310 314 318 324 326 329 331 332 333 333 331
311 311 311 311 311 311 311 312 312 312 312 312 312 312 312 312 312 313 313 313 314 313 313 313 313 313 314 313 308 305 298 282 301 304 316 317 322 324 325 326 327 315 305 301 300 300 299 299 299 293 290 290 290 291 293 296 299 292 296 296 296 298 296 300 301 302 302 301 301 300 302 303 302 301 303 304 304 310 320 321 325 327 330 332 334 334 332 330
311 311 311 311 311 311 311 312 312 312 312 312 312 312 313 312 313 313 314 313 314 313 314 313 314 313 313 312 305 303 297 297 305 307 318 324 326 328 326 326 327 309 305 301 300 299 299 297 296 294 292 290 290 291 295 295 297 294 292 295 297 299 297 299 299 299 302 302 301 303 304 301 301 299 304 303 307 311 318 321 324 328 331 333 333 333 332 330
310 310 310 310 311 311 311 312 312 312 312 312 313 312 313 313 313 314 314 314 314 314 313 314 314 313 313 305 302 297 297 298 306 308 322 324 321 321 326 314 311 305 301 299 298 297 297 295 293 295 291 289 290 292 294 293 295 293 293 295 297 298 299 300 299 299 299 299 301 302 300 301 302 301 302 303 307 317 319 320 320 323 328 333 334 333 332 331
310 310 310 310 311 311 311 311 312 312 312 312 313 313 313 313 313 313 314 314 314 314 314 314 313 313 313 306 299 294 296 306 310 307 311 318 315 312 308 304 306 303 302 301 301 300 298 294 294 295 288 290 293 291 292 291 288 293 293 296 297 297 299 299 300 300 299 300 300 299 299 301 302 303 300 303 305 314 319 319 320 323 323 329 332 331 332 331
311 311 310 310 310 310 311 311 312 312 312 312 313 313 313 313 313 313 314 314 314 315 315 314 314 313 307 301 299 291 303 305 307 308 311 313 309 306 304 304 304 300 298 298 298 298 297 295 295 297 295 293 294 291 292 291 288 294 293 294 295 297 298 299 298 300 300 300 299 297 298 299 302 302 296 302 307 310 319 324 326 326 326 330 332 332 330 331
310 310 310 310 310 310 311 311 311 312 312 312 312 313 313 313 313 313 314 314 314 315 315 314 314 311 303 304 293 291 309 307 305 306 308 308 306 302 302 302 302 300 299 298 298 300 299 298 298 298 296 291 293 291 291 292 294 293 293 293 294 296 297 298 298 298 300 299 301 299 298 300 301 300 298 299 306 317 323 325 326 326 328 330 331 332 330 330
310 310 310 310 310 310 311 311 311 312 312 312 312 312 313 313 313 313 314 314 314 315 314 313 314 309 304 301 295 297 310 308 307 304 305 306 303 303 303 303 303 302 300 298 299 300 299 298 298 296 288 295 288 292 291 294 293 293 293 288 291 293 293 296 296 298 299 298 300 299 297 296 298 297 300 301 310 320 321 323 324 326 328 329 330 331 330 330
309 309 309 310 310 310 311 311 312 312 312 312 312 312 312 312 313 313 314 314 314 315 315 314 313 309 302 294 300 309 312 312 306 306 306 304 303 303 303 304 303 303 302 300 299 300 300 299 298 294 296 293 291 287 292 294 293 293 292 289 290 290 288 293 297 298 298 299 300 299 288 292 296 300 301 302 314 317 316 315 317 320 326 329 329 329 327 328
309 309 309 310 310 310 310 311 312 312 312 312 312 312 312 312 312 313 314 313 315 315 315 313 309 306 300 298 308 313 308 308 308 306 303 306 303 302 303 303 304 303 302 301 300 299 300 298 297 296 297 293 289 295 293 292 293 287 290 291 284 285 283 292 294 296 295 300 300 299 289 291 296 299 300 301 316 315 314 313 313 317 325 328 328 327 327 328
309 309 309 310 310 310 310 311 312 311 312 312 312 311 311 311 312 313 314 314 314 315 314 312 308 301 296 301 312 315 327 310 305 305 307 304 301 299 300 302 302 303 302 301 300 301 300 299 297 294 290 295 294 290 286 285 286 287 285 279 282 284 282 290 294 294 293 297 300 296 289 291 295 298 299 301 308 315 313 314 313 317 325 327 327 327 327 328
309 309 309 309 309 310 310 311 311 311 311 311 311 311 311 311 311 312 313 313 314 313 311 304 305 303 297 294 302 316 305 301 301 305 302 303 301 299 300 301 302 301 301 299 301 301 299 300 294 291 291 292 289 284 282 281 281 283 282 280 282 283 283 288 293 294 295 295 297 295 288 290 294 298 299 300 301 307 312 314 315 318 323 325 326 327 327 327
309 309 309 309 309 310 310 311 311 311 311 311 310 310 310 310 312 313 314 313 311 313 308 301 305 305 292 302 311 301 299 302 304 303 303 303 302 301 300 299 299 298 299 299 299 299 298 296 295 294 292 288 286 286 280 277 277 278 282 281 283 284 283 284 288 293 294 294 291 295 293 292 292 295 296 300 301 299 309 314 316 319 323 323 324 324 323 325
309 309 309 309 310 310 310 311 311 311 311 310 309 308 307 310 312 311 310 310 311 308 306 309 304 298 293 305 295 296 300 302 303 302 302 302 303 301 300 298 299 298 297 296 298 294 295 290 293 284 284 285 286 283 279 274 278 277 279 280 281 284 286 285 287 289 293 294 291 292 293 293 294 295 297 298 300 299 307 314 316 318 321 321 322 323 322 323
309 309 309 309 309 310 310 311 311 311 310 309 308 309 311 310 310 308 305 307 301 296 291 295 295 286 286 294 298 300 301 302 303 302 299 301 303 302 301 303 299 296 291 291 289 293 292 288 287 282 280 281 282 283 281 283 284 283 283 281 283 282 282 284 287 292 292 289 288 289 288 291 293 295 296 298 298 299 298 311 316 317 319 320 320 320 319 320
309 309 309 309 310 310 310 311 311 310 310 306 304 303 302 298 294 294 300 303 300 299 298 299 302 301 301 298 299 303 304 305 299 299 300 302 303 299 298 299 297 296 292 288 289 289 291 283 281 280 281 284 285 285 286 287 286 286 285 284 282 282 284 287 289 292 292 290 288 289 289 289 291 292 295 297 297 299 298 301 309 311 311 315 317 317 318 319
309 308 309 309 310 310 310 310 310 310 309 305 302 300 293 294 289 288 296 298 300 301 300 301 302 301 298 299 301 301 297 298 300 298 301 306 300 297 293 296 292 288 288 292 290 292 290 283 282 284 286 287 287 288 287 286 286 286 284 283 281 283 281 286 288 292 293 289 286 289 288 288 291 293 295 297 297 296 297 297 300 306 309 309 314 317 317 319
309 309 309 309 310 310 310 310 310 309 308 303 303 299 298 300 301 302 299 291 299 301 301 302 303 301 301 300 303 303 300 296 297 300 302 303 299 293 293 293 290 287 289 290 288 286 283 281 285 287 289 289 289 289 289 287 286 285 283 282 281 280 284 286 287 289 291 290 287 289 288 287 290 293 295 297 297 296 297 298 298 301 304 309 311 315 317 318
309 309 309 309 310 310 309 309 308 308 302 302 302 300 301 303 306 306 301 295 292 300 300 301 300 299 298 302 301 302 295 295 293 299 301 304 296 295 294 290 289 290 291 291 287 284 282 283 288 290 289 288 289 289 289 287 287 284 283 281 279 281 283 278 283 288 289 290 286 289 288 289 289 292 294 297 297 297 298 298 299 303 310 311 312 314 316 318
308 308 309 309 310 309 309 308 307 305 302 304 303 302 305 307 306 304 298 290 291 297 300 302 301 299 297 297 302 299 296 297 297 297 305 302 295 297 293 292 289 288 287 290 289 287 285 289 292 291 289 290 288 287 286 284 281 284 284 281 280 283 282 283 282 286 287 288 288 286 285 286 288 288 290 295 298 297 297 299 299 299 310 315 318 318 318 319
308 308 309 309 309 310 308 307 303 302 304 305 302 306 307 307 307 304 296 290 292 294 304 301 302 302 301 306 305 297 300 299 300 302 305 302 297 294 292 296 292 286 289 290 289 287 288 291 293 292 290 290 288 285 285 285 280 281 284 285 284 284 284 284 285 284 281 280 283 286 277 279 286 287 289 292 295 295 296 296 295 297 301 312 315 318 320 322
308 308 308 309 309 308 308 302 301 303 303 302 304 307 308 307 308 305 294 285 280 290 299 294 303 297 306 300 303 300 300 295 301 302 305 303 304 297 296 290 293 286 290 291 288 288 288 293 292 289 288 287 286 285 286 287 282 280 281 285 286 286 285 284 284 282 276 276 281 287 277 275 282 287 288 289 291 293 293 295 296 297 297 306 314 318 320 321
308 308 308 308 308 307 299 297 303 304 301 303 308 309 309 308 309 303 292 280 276 292 294 300 300 298 305 302 301 301 284 288 301 302 301 305 300 303 293 288 292 294 296 294 285 281 293 291 290 290 289 286 284 283 285 287 282 280 284 286 286 285 285 285 284 283 278 284 285 285 283 278 277 283 288 290 291 291 291 292 294 295 295 299 308 313 318 321
308 308 308 308 307 306 298 299 301 301 302 306 310 310 309 309 307 301 288 275 274 296 292 295 300 306 304 302 302 297 296 299 294 298 302 303 302 297 294 290 291 291 293 290 280 287 291 289 289 289 288 284 283 286 288 288 285 284 286 289 287 287 285 285 283 281 282 281 277 279 284 278 276 283 289 291 289 289 290 290 291 294 295 295 298 302 310 319
308 308 308 308 307 307 304 299 301 301 307 309 310 309 313 308 301 289 278 274 289 293 306 298 309 303 301 302 299 299 298 301 294 298 303 303 303 299 290 292 295 292 294 293 285 289 292 292 292 292 288 284 287 288 289 289 284 286 288 289 289 287 287 286 282 282 279 277 272 279 282 276 274 280 282 288 289 287 288 290 290 292 293 294 296 298 306 316
308 308 308 307 303 303 300 301 300 306 308 310 309 310 310 299 289 282 277 274 294 283 296 299 296 293 297 293 294 297 295 299 300 300 302 298 299 301 299 301 296 294 291 293 291 291 293 298 300 294 289 290 290 291 291 289 290 291 287 285 283 284 282 284 281 280 276 271 273 280 283 279 274 277 282 285 286 287 288 289 290 293 294 296 297 296 307 313
307 307 307 306 297 303 302 297 303 308 309 310 310 308 301 291 282 275 272 281 293 292 297 294 291 298 292 291 287 295 296 297 297 298 293 299 293 297 295 291 295 288 285 285 285 290 292 293 291 291 297 294 293 290 291 291 290 288 284 282 280 280 280 278 276 278 272 270 275 280 282 280 274 275 281 285 288 289 290 289 290 291 292 293 294 296 299 314
307 306 307 303 303 306 297 297 304 308 308 309 308 302 290 280 280 277 276 295 280 285 287 288 293 292 292 293 293 292 290 294 297 295 292 291 289 288 287 285 284 278 278 279 281 286 285 287 291 292 299 293 289 287 287 288 287 285 282 280 275 273 273 268 273 269 268 272 277 281 282 278 275 278 285 287 289 289 290 290 291 291 291 293 294 295 298 300
306 306 306 306 306 301 302 304 305 306 308 308 304 295 283 274 273 279 280 286 278 289 286 294 291 292 293 290 290 292 295 289 295 295 296 293 290 288 292 290 291 285 276 280 281 280 280 287 290 291 291 296 289 284 281 281 283 284 282 277 274 270 267 265 267 271 273 276 281 282 284 278 279 282 285 287 289 290 290 290 291 291 291 293 294 295 295 299
305 305 302 305 305 305 307 307 307 310 308 304 296 289 278 275 277 293 284 284 284 292 292 291 291 293 293 287 290 292 287 293 292 291 292 288 287 285 287 291 293 289 286 281 279 278 273 276 282 288 283 292 290 288 285 284 285 284 287 283 277 273 272 265 271 268 270 273 277 284 280 275 277 278 287 290 291 292 292 292 292 292 292 292 293 294 295 298
305 304 303 304 305 307 307 308 308 310 306 298 291 283 276 277 280 280 278 285 288 291 289 293 290 289 287 290 292 294 292 286 294 291 288 287 283 285 287 288 294 292 290 280 282 280 281 278 285 291 292 292 289 292 292 288 285 284 287 285 280 277 277 275 273 276 274 274 273 276 276 279 280 286 291 291 291 292 293 293 294 293 295 295 294 294 295 298
303 303 307 305 308 310 309 310 308 308 300 294 283 281 277 281 277 286 282 292 291 288 289 292 291 284 282 283 291 291 296 289 291 290 287 288 290 289 292 293 293 294 288 282 279 276 279 278 286 291 293 290 290 293 293 290 278 283 284 279 281 285 284 277 274 279 276 273 271 274 278 281 284 285 287 289 290 291 292 292 293 293 294 293 293 293 295 299
300 303 303 308 311 312 313 312 312 304 298 289 282 282 286 288 292 290 295 291 291 291 283 281 282 282 279 281 284 289 290 292 289 288 283 290 285 291 291 292 296 295 294 290 282 286 280 279 286 288 288 291 292 293 292 292 289 285 280 282 288 291 288 279 272 272 272 269 269 275 276 276 277 275 286 287 287 289 290 290 292 292 293 292 293 293 297 298
299 301 305 307 310 309 307 308 304 299 294 286 282 294 293 287 295 293 294 292 291 291 283 280 280 288 281 281 283 289 291 286 286 287 283 289 285 297 292 291 296 295 295 295 286 284 287 276 281 288 290 292 294 292 288 290 292 287 284 293 281 273 277 277 276 268 267 266 268 273 275 277 277 279 284 285 286 287 288 289 290 291 292 293 293 292 295 297
299 300 300 306 309 305 306 305 301 295 288 282 281 285 292 292 294 294 296 294 294 289 281 288 282 284 285 280 286 290 289 283 288 284 281 286 282 291 292 294 292 296 296 295 288 286 288 278 279 286 289 291 289 286 279 281 288 292 291 287 290 283 279 277 276 275 275 267 267 270 275 275 282 280 284 286 287 288 288 289 290 291 292 293 293 293 293 295
301 298 297 308 308 305 306 304 296 291 285 283 284 284 293 291 295 297 296 294 291 288 287 287 289 281 283 287 288 282 288 290 288 286 287 288 288 296 293 297 292 294 296 296 292 294 283 285 274 280 289 289 279 284 280 282 281 284 285 281 284 284 286 284 282 280 275 268 267 268 269 277 283 285 286 286 287 288 289 290 291 291 292 293 293 294 294 295
301 296 296 308 310 306 304 296 290 288 288 288 289 290 294 291 295 295 298 298 294 298 292 290 286 282 284 282 283 290 284 286 289 285 288 289 289 284 297 294 295 292 295 294 292 291 282 279 278 280 283 281 284 289 289 288 287 286 284 281 283 280 277 275 273 282 280 277 270 269 273 280 286 291 290 288 290 290 291 291 290 291 292 292 293 294 294 296
296 291 296 309 312 309 297 287 287 289 286 285 285 290 292 299 293 294 295 297 295 292 299 292 291 289 288 288 289 287 285 283 288 288 290 287 292 292 296 298 296 295 291 286 288 294 291 285 282 278 281 283 287 291 293 293 292 290 287 283 287 283 280 276 271 272 278 279 281 277 273 279 288 290 291 291 291 291 291 290 290 291 292 292 293 294 295 294
295 294 305 309 311 303 290 283 288 286 285 290 295 295 298 296 293 294 293 294 292 294 291 290 291 289 292 292 292 288 289 286 289 287 290 291 291 294 297 297 298 296 295 289 292 291 298 282 278 280 283 287 290 291 292 293 292 288 289 289 286 283 285 281 278 277 278 278 277 274 273 280 287 291 291 291 290 291 291 291 291 292 291 293 293 293 294 295
296 295 299 307 307 300 291 283 284 283 289 291 292 292 296 294 294 292 292 293 291 291 290 290 292 294 292 296 293 287 293 284 291 290 288 292 288 297 296 297 298 294 293 293 289 294 284 282 282 276 275 279 280 282 283 288 289 284 284 286 288 288 288 287 287 284 277 278 280 275 273 279 287 292 291 290 291 291 292 293 293 292 292 292 293 294 294 296
295 299 298 301 304 299 291 288 285 283 287 288 289 289 289 291 296 295 294 292 295 292 290 289 293 294 293 296 293 294 294 288 286 293 292 291 289 296 296 297 298 294 296 298 299 299 289 285 284 277 274 272 271 269 273 276 281 284 287 288 289 288 287 284 277 278 275 279 282 278 278 285 288 289 290 291 291 292 293 294 295 295 293 293 294 295 294 295
294 286 292 294 296 297 294 295 292 290 287 287 284 288 290 286 291 296 295 293 295 295 292 294 294 295 292 290 286 288 288 293 288 287 290 287 290 294 296 296 297 296 299 301 300 296 285 286 284 283 280 279 280 281 284 287 284 282 285 286 287 289 289 288 285 280 278 281 280 282 282 284 286 288 289 290 291 291 291 293 293 294 295 295 292 293 294 295
296 288 288 287 294 291 292 293 293 294 288 290 285 289 286 287 289 291 297 289 294 293 293 292 292 289 288 287 287 287 289 289 291 288 288 288 291 294 297 297 298 299 301 300 299 292 285 281 284 286 285 285 287 286 288 289 285 286 285 286 287 287 287 286 283 281 286 283 279 285 287 284 286 289 290 291 292 292 292 293 293 294 295 295 295 294 298 295
288 290 293 295 289 284 287 287 294 293 295 294 288 291 287 286 286 284 290 294 294 294 288 289 291 292 291 290 290 284 282 285 287 284 290 292 291 293 293 297 295 299 299 297 300 291 286 282 283 285 286 288 288 288 289 288 288 287 287 287 286 287 287 285 285 287 287 282 280 286 288 286 288 290 292 293 293 293 293 294 295 295 296 296 296 294 294 295
296 293 295 298 288 289 291 294 295 294 293 294 287 290 286 287 285 288 289 288 290 291 292 283 287 291 293 295 291 284 285 283 284 290 290 289 291 290 289 293 298 298 298 296 296 296 289 283 285 288 286 287 288 289 290 288 288 287 287 287 287 287 286 287 286 287 287 285 287 287 287 287 290 291 293 294 296 296 296 297 297 296 295 296 296 295 295 296
291 289 288 294 294 293 292 292 293 292 289 294 285 288 288 287 285 288 290 289 283 288 293 288 289 290 292 292 291 287 290 291 290 287 292 291 290 293 291 292 292 296 297 294 294 295 290 285 291 288 284 285 288 290 290 289 287 285 288 287 288 288 287 287 287 287 287 286 287 287 286 286 291 295 295 297 297 298 297 296 296 296 296 296 295 296 296 296
298 299 298 291 287 289 292 292 290 290 285 287 284 288 289 288 287 289 289 293 290 289 291 289 290 290 291 291 290 290 294 294 294 294 295 294 289 295 290 292 298 291 294 292 293 293 292 286 291 287 283 283 287 288 289 289 288 286 286 286 286 286 283 285 284 287 285 284 285 285 283 284 290 296 297 297 297 296 295 295 296 296 297 297 296 296 296 296
299 300 299 294 286 293 288 291 291 287 283 289 291 289 288 288 290 291 284 291 294 294 293 293 291 291 289 288 289 291 295 296 296 297 297 300 299 297 298 299 297 292 291 292 294 289 290 286 285 284 281 282 286 288 287 287 286 283 284 286 286 286 287 287 288 289 288 287 284 282 283 289 291 294 292 291 293 294 295 295 296 297 297 297 296 296 297 297
Wind_Speed
19 20 19 19 19 19 19 19 19 18 18 18 18 18 18 17 17 17 16 16 17 17 18 18 18 18 19 19 20 16 16 7 13 9 7 9 7 4 4 5 5 1 3 2 4 4 4 6 5 3 2 1 3 3 3 4 3 3 7 7 11 8 11 5 8 7 2 6 8 7 6 9 13 11 12 8 6 11 15 8 3 2 9 9 6 16 18 16
20 20 20 19 19 19 18 18 18 19 19 18 18 18 17 17 17 17 16 17 17 18 18 18 18 18 19 18 18 15 11 7 10 9 14 8 4 5 5 6 4 4 1 1 1 1 2 5 4 5 2 1 2 3 6 3 5 7 3 6 13 8 4 2 3 6 8 11 7 10 13 15 12 15 7 6 7 10 13 2 5 8 8 8 13 16 18 15
20 20 20 20 19 19 20 20 20 19 19 19 18 18 18 18 17 17 17 17 17 17 18 18 18 18 18 17 14 11 8 7 5 3 7 4 16 8 6 7 5 4 1 2 2 1 1 4 6 5 4 3 3 5 4 3 4 7 5 9 12 3 3 7 5 6 5 6 12 14 14 17 16 11 4 8 5 12 15 11 4 12 13 13 15 18 18 16
21 21 21 21 21 20 20 20 19 19 19 18 18 18 17 17 17 17 17 17 17 18 18 18 18 17 17 16 12 7 4 4 2 3 2 4 5 9 8 7 5 4 3 3 2 3 2 4 6 3 3 4 3 4 5 4 4 2 7 9 4 4 5 8 8 7 10 8 5 6 6 7 9 5 5 3 16 12 8 6 16 13 17 17 21 20 17 15
20 21 21 21 20 20 20 20 20 19 19 19 18 18 18 18 17 17 18 17 17 18 18 18 16 16 16 13 12 3 4 2 1 1 3 3 4 6 6 7 7 2 1 2 3 3 2 4 4 3 3 4 3 3 7 4 4 2 7 6 4 3 9 8 7 9 9 10 8 6 7 9 5 5 4 7 8 12 11 11 14 14 8 12 16 19 17 18
21 21 21 21 21 20 21 21 20 20 20 19 19 18 18 18 18 18 17 17 18 18 18 17 15 14 14 12 7 1 1 1 2 3 4 6 6 7 7 7 7 1 1 2 1 4 5 3 0 1 1 2 4 7 2 6 4 8 8 5 3 7 6 1 8 12 12 11 13 11 10 5 6 5 4 5 8 10 20 27 27 27 25 24 21 18 20 20
22 22 22 21 21 21 21 21 21 20 20 20 20 20 18 18 18 19 18 18 17 18 17 15 13 14 14 11 1 2 2 5 4 8 5 7 7 7 7 7 4 3 1 3 3 2 2 7 3 5 3 4 5 5 8 5 6 8 9 3 8 8 7 7 5 6 11 19 18 14 11 9 8 13 2 7 6 11 12 11 21 24 25 24 21 20 21 22
22 22 22 22 22 22 22 21 21 21 21 21 20 20 19 19 19 18 17 16 17 16 15 13 12 13 11 4 1 2 1 4 9 4 9 8 7 8 8 3 3 2 3 5 4 5 4 6 8 3 4 5 3 4 4 10 8 10 11 8 7 7 7 10 7 6 7 8 10 12 13 16 12 8 5 9 2 3 13 15 15 19 19 17 22 19 18 17
23 23 23 23 23 22 22 22 22 22 22 22 21 21 21 19 19 18 18 17 15 15 13 12 11 10 7 0 2 3 2 5 5 6 6 4 7 7 1 2 2 2 3 4 5 7 1 3 4 3 2 5 2 4 3 3 7 8 7 6 9 9 7 9 12 12 9 5 5 10 16 17 13 4 5 9 7 8 15 19 16 12 13 11 5 3 12 17
22 22 23 23 23 23 23 23 22 22 23 22 22 22 21 19 18 17 17 16 15 13 12 10 10 10 3 1 1 3 3 5 3 7 6 7 6 6 4 7 5 4 4 6 5 2 2 3 4 10 4 3 3 3 4 3 3 5 6 11 11 11 11 9 11 14 10 7 5 8 12 14 13 1 7 2 4 14 7 4 8 17 14 13 13 11 4 3
22 23 23 22 22 23 23 23 24 23 23 23 22 22 21 20 18 16 15 14 13 12 8 8 8 8 2 2 2 1 6 3 1 4 6 8 6 5 5 5 3 3 3 6 6 0 2 5 5 6 1 0 5 6 6 2 5 5 5 5 11 13 12 10 9 13 9 9 10 11 13 13 19 4 10 3 3 11 17 15 13 11 14 14 14 12 10 4
22 22 22 22 22 22 23 24 24 23 23 23 23 22 21 20 18 16 15 12 12 9 6 5 7 1 1 0 2 6 4 3 5 5 6 8 5 7 7 6 2 4 3 5 8 3 4 6 5 4 2 4 3 6 5 3 6 6 5 3 4 5 10 13 16 13 12 10 7 4 5 12 14 11 7 4 3 5 17 19 18 18 18 19 15 13 13 12
23 23 22 22 22 23 24 23 24 23 24 24 22 22 20 18 18 16 14 12 6 7 7 4 2 0 1 2 7 9 5 6 6 6 5 4 4 4 4 6 6 5 5 4 6 5 6 5 2 6 1 2 3 1 5 6 7 6 2 4 2 3 5 9 10 14 16 12 8 6 9 10 15 16 9 4 9 5 12 6 6 12 12 12 10 9 9 8
23 22 22 22 23 24 24 23 24 24 23 23 22 21 21 20 18 16 13 11 9 7 6 1 1 1 1 5 5 3 4 4 3 4 4 3 2 6 6 7 8 6 4 4 6 4 6 5 3 4 3 1 3 2 7 5 2 3 6 2 2 2 4 4 6 8 15 12 12 5 9 10 12 16 5 6 10 10 15 18 14 9 13 15 12 11 13 12
22 22 23 23 24 24 23 24 23 24 22 22 23 23 22 21 17 14 13 9 6 6 3 1 1 2 1 7 6 8 10 1 4 8 5 3 3 4 4 5 8 8 6 5 3 2 2 4 4 3 3 2 1 4 5 3 2 2 1 3 2 4 5 4 4 7 13 10 16 6 10 11 11 13 5 7 12 13 8 11 16 13 12 13 16 17 13 16
23 23 23 23 23 23 23 24 23 21 21 23 22 24 24 23 17 12 9 8 4 3 1 0 0 1 1 7 1 6 2 1 4 7 4 2 2 4 5 1 3 4 4 4 6 4 3 2 3 3 3 3 1 1 3 6 6 4 2 2 3 0 5 2 4 5 9 4 6 12 9 3 9 12 6 6 9 15 14 12 13 17 16 17 14 15 17 16
23 24 24 24 23 23 24 23 22 22 21 20 23 24 21 17 12 6 4 1 2 2 3 1 1 2 1 2 3 3 3 4 4 1 2 2 2 3 5 5 1 3 4 6 4 2 2 1 1 0 1 3 2 0 3 4 5 4 1 2 2 3 2 2 5 3 3 4 3 9 13 9 4 7 4 2 2 7 15 18 16 16 16 17 15 14 13 14
22 24 25 24 23 24 22 21 21 22 22 23 21 18 17 18 5 6 6 3 1 2 0 0 1 2 5 2 2 3 2 0 1 4 3 2 1 4 0 1 2 6 2 2 0 1 1 1 1 4 3 2 0 1 2 3 3 3 3 3 6 2 3 5 0 3 1 1 5 7 15 12 9 8 7 6 1 2 11 16 13 13 16 18 14 14 14 14
22 23 25 25 24 23 21 19 21 20 20 22 20 18 2 2 2 1 2 1 1 2 2 1 1 2 1 6 7 4 3 5 2 2 2 4 2 3 3 1 4 3 4 2 3 4 0 1 4 3 3 3 4 4 7 9 5 7 5 4 2 3 4 3 5 5 5 4 6 6 5 7 9 9 9 9 3 4 6 9 8 12 15 16 15 11 8 7
22 24 25 25 25 24 22 21 19 18 15 14 10 8 4 7 6 3 5 2 1 2 4 7 4 6 11 8 4 5 4 3 1 4 4 3 0 1 4 2 2 2 2 3 3 3 3 3 3 4 7 8 7 6 8 9 7 7 7 4 5 4 5 5 5 7 4 2 7 8 5 4 5 6 9 8 3 2 6 11 8 11 7 6 13 11 13 13
23 24 25 26 25 24 23 22 18 13 13 6 5 3 5 3 4 4 7 10 5 4 7 10 7 8 7 3 3 4 5 4 1 2 2 1 2 2 3 0 1 2 3 6 5 2 5 1 6 8 9 9 10 7 6 6 6 8 7 5 7 3 5 4 4 6 6 3 5 6 3 4 7 6 7 5 2 5 5 8 13 15 8 9 8 21 20 20
23 23 25 25 26 25 22 20 22 16 11 1 1 4 0 2 2 4 0 6 11 6 5 11 8 5 4 6 3 1 2 1 6 3 1 2 2 2 3 1 1 3 6 4 4 1 4 7 9 9 9 6 6 9 9 8 9 4 7 7 4 6 5 7 6 3 5 3 8 9 7 4 7 7 8 10 6 4 5 7 8 12 15 14 15 12 18 13
23 25 24 25 25 25 22 20 20 18 1 2 4 3 2 3 0 1 2 2 5 5 6 5 3 5 1 3 3 5 4 2 5 6 3 4 4 2 3 5 7 6 5 5 5 3 2 5 10 11 4 4 2 3 1 1 1 4 1 0 4 3 2 4 5 4 6 0 4 9 10 8 5 5 7 10 8 4 5 6 7 11 11 15 17 14 11 11
24 24 24 23 25 23 22 21 19 3 4 2 1 1 3 1 2 3 3 1 3 8 4 5 2 0 2 0 2 3 2 2 2 7 4 2 3 2 2 3 5 5 6 5 3 2 4 9 5 5 3 1 2 4 4 4 6 2 3 1 1 1 2 5 5 3 4 7 2 5 5 6 5 4 4 8 10 6 4 4 3 5 8 11 13 15 15 13
23 22 23 24 23 24 24 19 3 3 7 1 1 2 3 4 2 2 2 2 1 5 5 3 2 1 2 3 2 0 1 2 1 2 2 1 3 3 1 1 1 3 6 6 4 6 8 4 6 10 10 3 2 5 4 1 6 6 3 3 4 3 4 5 1 4 6 5 4 6 3 4 8 7 8 8 9 9 2 3 4 2 5 7 10 11 11 8
22 22 23 22 22 23 22 2 4 6 5 2 2 3 4 4 3 1 2 2 2 4 2 2 2 2 1 3 5 1 2 2 5 3 1 3 2 0 1 2 0 3 5 7 3 2 3 5 5 5 7 3 3 2 5 1 1 2 5 1 0 2 2 2 4 3 1 2 4 3 2 5 5 9 7 6 6 9 2 1 1 1 7 7 9 8 12 15
22 22 21 20 18 18 6 1 3 7 2 2 3 3 4 3 1 2 2 2 2 2 2 4 2 0 1 7 7 4 2 3 5 3 2 2 1 1 1 5 3 1 2 1 5 4 5 10 7 7 7 6 4 3 3 4 3 3 4 3 4 3 4 3 2 1 3 3 3 3 2 1 4 7 3 3 6 5 4 2 1 1 3 8 7 9 11 14
23 22 20 18 18 10 4 3 7 4 4 4 3 5 3 2 2 3 2 1 3 4 3 5 2 4 2 8 7 3 3 6 2 3 1 2 3 3 1 3 2 4 3 3 5 7 2 6 6 7 5 3 4 2 4 3 1 5 4 2 2 1 4 4 5 1 1 1 6 6 2 1 2 5 3 1 3 3 6 3 3 1 2 5 8 8 9 12
21 21 19 16 17 9 3 2 0 3 4 4 4 3 4 4 4 3 2 2 3 1 4 1 4 1 6 7 6 5 4 3 1 3 3 4 1 1 2 2 3 4 4 2 5 5 2 1 5 5 3 5 4 4 4 4 5 5 4 3 1 2 2 4 3 3 3 2 4 2 1 1 5 7 5 2 0 2 4 4 3 3 3 4 3 9 13 12
20 18 16 14 9 2 1 0 3 8 5 7 6 3 3 5 2 1 2 1 1 1 3 2 2 5 5 6 4 6 5 2 2 3 2 1 5 4 2 0 1 1 3 2 3 5 5 5 6 2 3 1 4 5 2 2 2 6 3 4 5 5 3 1 5 2 5 1 3 2 0 2 2 6 5 2 3 3 4 4 3 2 2 3 5 3 13 13
20 17 14 8 1 1 1 3 9 7 6 5 4 4 3 4 1 2 3 1 1 2 3 3 4 5 7 5 6 5 2 3 5 3 3 5 3 5 3 4 5 3 4 5 3 5 7 6 3 2 3 3 1 5 4 2 3 4 3 2 6 8 6 4 2 5 1 3 4 1 2 2 1 5 6 5 4 2 2 5 7 6 4 4 5 5 6 12
21 19 12 4 4 1 2 3 4 3 7 9 6 3 3 1 5 6 1 4 1 6 1 5 5 3 7 3 3 8 4 4 4 3 4 2 3 3 2 0 0 3 5 3 4 6 5 3 3 5 4 5 1 6 9 7 8 8 4 7 3 3 5 3 5 2 1 4 2 1 3 2 2 8 8 7 7 7 4 5 6 6 4 4 6 6 3 3
22 20 18 5 6 2 6 8 5 6 6 7 3 3 4 4 2 4 2 4 0 1 4 2 4 9 4 5 7 7 5 5 8 5 6 3 1 5 2 2 3 2 1 2 3 5 6 5 4 5 5 3 1 1 4 5 5 7 6 1 3 1 1 2 4 2 3 5 3 3 0 2 4 6 8 9 8 6 5 4 5 5 4 6 7 8 6 1
20 18 7 3 7 8 5 3 5 2 5 4 4 7 7 8 1 2 2 1 1 2 2 3 6 5 8 6 4 9 6 3 10 9 6 4 5 5 7 4 2 2 1 2 1 1 4 5 3 3 2 4 1 2 3 2 2 2 0 1 3 4 2 1 1 2 5 6 6 2 2 3 1 4 2 5 7 8 4 3 4 4 4 5 7 6 4 2
23 13 5 2 3 7 11 8 5 1 1 3 7 6 4 0 0 1 1 2 2 2 3 3 3 4 5 5 3 6 5 3 9 11 5 6 4 3 6 2 3 3 2 3 2 1 3 4 7 3 4 1 3 2 2 2 4 2 1 5 4 3 3 1 2 1 2 5 7 4 3 3 5 4 8 7 8 8 9 8 5 8 3 1 4 5 6 6
11 4 1 3 1 4 6 5 3 3 3 7 5 6 3 1 1 0 0 2 1 2 5 4 4 5 2 4 1 10 7 3 8 7 4 5 5 6 9 6 6 8 5 1 3 1 3 1 3 7 3 3 5 2 1 3 1 2 4 0 4 4 2 1 4 1 1 2 7 1 7 7 5 7 5 7 9 12 9 10 9 9 8 3 5 5 5 7
5 7 2 2 2 3 3 4 4 5 5 5 5 3 1 0 1 2 2 1 2 0 3 6 4 2 4 5 2 7 6 4 5 5 5 4 4 8 8 4 7 8 8 3 5 2 1 7 5 0 7 4 4 4 2 2 6 3 1 5 2 2 5 3 2 3 2 2 6 2 6 7 4 8 5 2 5 8 9 8 9 10 11 6 4 5 5 5
5 3 3 3 6 1 2 5 6 3 3 3 3 2 1 2 1 2 1 0 2 3 2 2 1 6 2 1 4 5 5 3 6 3 3 4 3 1 3 5 3 8 8 7 1 3 3 5 4 2 2 5 6 1 4 2 2 5 4 2 4 2 4 3 2 2 2 4 4 4 4 6 6 9 6 8 6 7 9 8 8 10 11 11 6 5 5 8
1 1 2 2 1 5 2 5 6 4 3 4 1 2 1 1 0 1 3 3 0 2 2 0 0 1 1 2 2 2 2 4 4 2 2 2 1 3 3 4 6 11 11 10 4 4 3 1 5 4 5 4 4 4 1 4 4 1 2 4 2 5 4 1 3 2 3 4 2 7 1 8 6 6 6 10 7 8 9 10 10 10 8 10 9 5 4 7
3 2 1 2 1 5 4 5 4 4 4 3 1 1 2 1 0 1 1 2 1 2 0 0 0 1 1 2 1 2 1 1 2 3 1 2 4 4 3 6 8 12 11 9 2 3 3 1 3 6 5 5 3 0 4 4 1 1 0 2 0 2 3 3 1 3 4 3 4 3 7 10 10 3 2 6 7 8 8 10 9 7 7 9 9 8 5 9
2 1 2 3 3 4 4 3 3 2 1 2 1 0 1 0 1 2 1 3 1 1 1 1 1 0 2 1 2 0 1 2 1 1 1 3 3 3 2 8 8 9 9 8 4 5 2 2 2 5 7 2 6 5 4 2 1 2 4 6 7 3 4 2 7 1 2 3 4 1 13 11 12 4 4 5 7 7 8 9 9 7 7 9 10 7 5 5
2 2 1 2 2 2 2 6 2 0 2 1 2 1 0 0 1 3 1 2 4 1 0 1 0 1 0 0 0 0 1 2 1 1 1 3 2 3 4 7 6 7 5 3 3 2 1 2 1 5 4 7 9 12 8 7 6 5 5 3 1 0 1 2 3 6 3 3 1 2 4 21 2 7 7 8 7 9 7 5 7 7 7 9 10 8 7 5
2 2 5 6 4 3 3 2 3 3 1 1 4 1 0 0 2 1 2 1 1 0 1 1 1 1 1 2 0 0 1 2 1 2 2 4 5 6 3 6 6 8 5 2 4 1 5 0 3 5 6 6 10 8 6 4 2 2 4 3 5 2 1 1 1 2 2 3 4 4 2 16 5 7 8 6 5 5 5 5 8 7 5 9 9 9 9 8
2 2 6 5 5 5 8 3 4 5 3 4 2 2 2 1 1 2 1 1 1 1 0 0 3 1 0 1 1 2 1 2 3 3 3 2 3 4 6 7 7 5 4 1 2 2 3 1 2 4 5 6 6 6 5 5 6 3 1 3 1 1 2 2 2 0 3 6 7 5 10 12 4 3 5 4 4 8 9 11 6 8 7 6 10 7 7 8
4 2 3 7 6 6 4 1 2 0 3 3 3 5 5 3 1 1 0 0 0 0 1 1 0 0 1 1 0 1 1 2 2 3 4 2 4 3 8 10 6 6 4 5 7 1 2 2 1 2 3 5 5 2 2 3 4 4 1 2 3 4 5 6 3 3 3 2 4 7 13 17 3 4 6 7 11 13 15 16 16 12 10 8 9 11 5 7
3 2 5 6 6 6 3 1 3 3 4 2 4 4 0 2 2 3 1 0 2 0 1 0 1 1 0 2 2 1 1 3 3 3 1 2 2 3 3 7 7 6 7 8 4 5 1 0 2 3 4 6 7 5 3 1 3 5 9 8 12 9 4 1 2 4 8 5 12 13 13 21 26 20 14 17 12 14 15 16 17 18 19 12 6 9 7 6
1 3 2 6 6 4 4 3 4 4 4 2 1 1 2 1 2 1 3 1 1 1 0 1 1 3 1 3 1 3 2 2 5 3 4 4 3 4 7 9 5 3 6 4 4 3 1 1 5 5 7 9 9 11 9 5 7 10 10 11 8 6 7 7 6 10 3 6 21 5 7 14 25 19 15 14 15 13 15 16 17 18 18 21 15 9 11 6
2 1 2 1 1 4 6 7 7 9 13 1 2 1 0 3 4 1 4 1 1 1 1 3 3 2 3 1 1 2 2 2 2 2 2 3 4 3 6 4 1 3 6 1 1 2 2 2 4 4 7 10 9 11 9 7 8 7 8 8 9 8 7 8 10 11 11 11 18 14 14 21 25 21 20 18 17 18 16 16 16 17 18 19 19 15 14 14
2 1 0 1 1 2 1 8 8 7 10 3 0 3 2 2 4 1 1 3 2 0 1 0 3 5 6 3 1 3 3 6 2 4 2 3 2 3 4 5 2 2 3 1 1 0 1 3 4 4 8 9 10 10 10 11 8 8 7 6 5 6 8 9 10 12 13 15 16 17 19 26 24 21 21 22 20 21 23 22 19 18 19 19 20 19 16 17
2 1 4 3 2 3 3 3 3 4 4 4 2 3 0 2 4 5 3 1 1 2 0 1 3 6 6 5 1 2 4 4 8 7 4 3 4 3 2 3 3 3 5 3 0 1 0 3 1 1 4 11 8 8 9 10 8 8 6 3 6 7 7 8 8 11 13 15 16 16 19 22 18 11 19 19 17 17 20 25 25 22 20 19 19 20 18 17
2 1 0 2 4 4 2 3 5 4 3 5 4 3 2 3 4 3 4 2 3 1 1 3 3 4 4 3 4 6 9 8 8 11 12 3 7 2 2 2 1 6 4 2 1 1 1 3 2 1 3 7 1 3 6 7 9 10 5 3 3 6 7 6 9 8 8 14 16 17 19 17 15 7 11 14 17 19 21 21 22 21 21 22 24 25 23 20
1 1 0 1 1 3 4 3 3 3 4 1 2 3 1 4 4 4 4 5 2 2 3 4 4 1 5 4 8 7 8 7 9 10 8 5 8 4 4 2 2 2 2 2 1 1 3 1 3 2 3 6 2 2 6 6 4 4 4 2 5 8 8 12 12 14 15 15 14 14 16 14 16 15 17 17 18 22 24 22 21 23 23 22 23 24 24 21
Wind_Direction
349 347 346 345 343 341 341 339 338 335 335 337 333 331 331 330 330 327 328 329 329 330 330 329 330 330 332 330 329 329 327 332 321 328 327 241 231 221 215 248 293 288 204 284 312 355 334 329 312 276 252 155 239 208 211 224 206 215 217 211 233 221 215 176 207 195 201 223 231 253 246 237 246 245 246 234 154 162 176 171 93 47 166 145 76 124 141 147
348 347 345 344 342 341 339 337 337 338 336 334 332 331 331 331 330 330 330 330 330 329 330 330 330 330 330 331 329 329 334 315 301 288 239 229 232 255 229 245 240 253 272 287 282 305 354 316 314 340 296 245 213 230 149 246 176 206 216 212 232 212 225 191 202 203 182 215 227 236 242 247 242 244 244 247 157 151 171 127 128 112 117 96 116 127 141 158
347 345 344 343 342 340 339 338 339 337 335 334 334 333 332 331 329 329 329 329 328 329 330 329 329 330 330 329 328 332 342 316 286 290 283 253 236 228 242 249 243 258 219 246 238 216 222 267 288 316 288 252 234 228 182 242 190 214 204 225 232 187 214 236 236 250 212 196 223 225 227 233 239 247 269 255 126 164 163 150 99 133 142 137 141 144 155 161
345 346 345 342 341 341 340 337 335 336 334 334 332 331 330 329 329 329 328 326 327 328 329 329 329 330 328 326 329 333 331 305 6 298 292 258 215 205 228 234 237 221 242 219 233 258 264 278 275 254 284 245 264 209 235 211 198 186 207 225 230 190 244 225 239 255 267 252 236 238 258 261 259 253 265 238 135 163 169 170 150 157 151 153 152 156 156 159
344 342 342 341 339 337 336 336 335 334 333 333 332 331 330 330 328 327 326 325 326 326 328 329 331 327 327 327 330 360 355 41 257 274 276 220 230 253 264 260 247 215 201 257 320 283 276 279 292 282 198 275 234 221 236 244 209 305 235 238 243 262 222 230 236 251 258 269 271 259 263 258 291 284 258 249 184 170 164 171 137 131 128 136 150 158 162 167
344 343 342 340 338 336 336 335 333 333 332 332 330 329 329 326 326 325 323 323 323 324 327 329 328 328 325 333 315 287 53 90 305 291 200 221 233 240 249 262 275 193 347 350 343 301 312 298 252 310 290 192 223 219 260 225 198 242 257 254 214 242 258 209 226 232 248 264 266 263 256 262 259 267 261 266 253 206 179 170 158 157 161 167 161 172 171 174
343 342 341 338 338 336 334 334 333 332 331 330 328 327 325 325 324 323 321 321 321 324 326 328 327 327 334 327 324 51 88 263 306 248 188 225 240 251 249 252 288 301 333 328 309 324 307 307 317 267 263 267 261 215 233 241 220 234 250 242 244 246 255 262 258 257 235 244 253 260 273 266 263 270 282 291 308 219 184 165 153 158 163 158 160 171 175 180
342 341 340 339 337 336 335 334 332 331 330 329 327 326 325 325 322 320 318 318 320 322 325 327 327 331 344 349 21 339 95 255 248 260 206 218 240 254 257 282 260 271 290 254 266 283 303 287 285 273 248 223 222 192 217 232 237 233 244 247 259 260 252 263 254 251 260 261 267 281 278 267 260 257 302 272 325 192 141 166 166 157 152 161 161 175 174 179
342 341 340 339 337 336 334 334 333 331 329 328 326 325 325 324 322 320 320 319 316 321 324 326 332 339 331 173 73 20 263 229 222 212 211 217 242 250 122 308 163 179 245 267 230 246 284 280 294 296 279 338 295 286 264 199 258 239 243 242 249 251 253 251 265 258 250 263 265 276 271 273 265 348 268 257 226 217 181 178 155 129 139 127 83 172 182 172
342 340 339 337 336 336 335 333 333 331 328 327 325 325 324 322 320 319 317 313 316 317 322 328 337 339 333 45 22 42 266 210 225 200 197 214 245 274 258 233 268 278 293 273 288 251 208 285 317 308 244 251 9 286 330 202 255 334 244 230 241 244 246 251 258 263 255 248 246 253 270 280 280 186 268 271 275 187 141 104 125 135 138 134 128 118 40 126
340 338 337 336 335 335 334 333 332 330 328 325 325 322 320 317 314 311 308 312 316 314 320 331 337 351 18 350 87 233 259 8 214 214 197 206 223 256 262 263 234 261 256 278 275 53 300 315 324 317 259 253 325 314 332 241 339 299 290 265 239 244 246 248 252 266 262 256 238 247 269 276 277 221 249 237 318 152 144 142 129 137 134 139 137 138 140 156
339 338 336 336 335 334 332 332 331 329 328 325 323 321 317 315 311 306 308 307 309 303 316 319 339 327 267 54 156 228 263 274 316 289 211 194 218 226 238 242 236 232 261 291 297 341 323 305 331 351 270 346 325 324 297 320 326 289 284 289 259 234 240 235 239 246 264 254 240 170 268 265 265 249 226 214 114 177 150 151 151 155 153 154 162 153 152 159
338 337 336 335 333 333 332 331 330 328 329 326 322 318 313 309 305 301 301 303 290 297 303 306 324 88 7 355 232 236 272 275 273 292 293 257 271 276 249 255 248 245 244 263 288 302 303 303 334 325 275 329 295 183 288 317 294 305 255 173 247 233 241 230 231 233 246 255 249 137 245 251 261 258 237 171 146 198 131 140 176 154 145 142 147 147 129 125
338 336 335 333 333 333 332 331 329 330 329 325 320 315 310 304 300 300 297 285 277 276 270 188 105 83 102 244 281 266 258 280 314 334 282 273 304 274 267 245 246 252 247 240 264 265 283 288 305 271 269 251 282 300 329 312 299 319 296 312 192 176 259 227 202 216 234 247 250 188 243 251 253 263 233 147 150 171 163 163 194 186 158 155 154 159 161 151
337 335 332 333 334 332 331 331 330 330 327 324 320 313 307 303 302 297 290 283 258 233 221 182 103 87 5 276 261 284 277 311 323 274 271 270 237 295 275 273 231 229 230 229 242 243 257 312 358 332 301 264 324 354 315 324 326 276 356 308 316 171 279 278 219 182 213 232 242 223 242 242 252 265 252 180 154 175 192 186 180 171 154 158 160 167 174 174
336 333 332 332 332 331 331 332 330 327 326 324 318 311 305 303 301 291 279 260 228 214 246 65 195 141 299 311 276 323 350 275 262 248 235 226 266 260 289 277 250 270 270 283 242 271 274 288 279 215 273 344 32 58 332 7 336 346 124 286 310 270 242 312 254 182 188 201 259 220 245 186 245 255 253 213 177 178 178 203 192 172 161 161 171 175 179 182
335 334 332 331 332 332 332 332 329 328 325 322 320 311 305 301 305 294 236 129 165 171 143 85 110 137 48 230 296 304 256 246 246 333 292 261 233 256 314 331 330 298 236 251 264 266 287 307 257 319 283 231 188 78 15 2 318 308 348 202 219 231 287 240 295 283 187 148 257 239 232 225 245 272 281 311 209 172 179 189 188 178 166 166 174 185 177 178
335 334 332 331 331 331 332 330 330 330 327 324 324 307 300 304 335 116 55 89 125 156 244 145 61 11 287 320 18 340 261 58 208 241 268 233 199 299 244 290 291 303 337 260 343 217 197 286 252 213 356 345 42 99 126 239 209 251 323 346 317 285 199 224 131 270 6 156 220 253 239 223 239 268 275 256 214 111 176 178 188 188 172 167 174 181 185 185
335 333 332 331 330 329 330 332 331 332 327 322 321 323 328 84 47 0 102 136 83 13 29 321 55 11 217 283 286 289 296 230 250 129 276 275 269 241 301 270 272 308 317 23 284 187 289 256 22 23 295 305 255 171 180 219 214 240 229 221 212 283 290 231 236 250 248 257 266 245 237 238 237 255 257 271 225 193 140 195 196 191 184 172 169 177 193 195
333 335 331 330 329 327 330 331 329 325 329 331 346 343 349 15 5 338 330 46 128 216 248 266 188 265 293 273 310 286 280 360 27 267 266 278 134 238 251 241 302 356 297 274 289 260 120 173 214 224 233 239 250 217 207 231 231 263 283 258 248 249 277 289 281 260 215 246 244 252 231 208 258 244 259 250 232 167 137 140 186 273 310 200 167 166 183 209
332 335 333 330 329 327 328 329 321 320 322 300 303 3 50 358 20 331 327 294 257 228 257 266 230 239 260 299 281 349 6 324 297 300 273 331 347 50 307 46 15 335 266 249 228 269 76 198 257 230 229 229 239 244 242 256 247 248 267 285 285 261 271 244 246 279 276 195 267 243 236 196 239 257 262 264 157 216 175 145 158 189 228 294 223 178 190 204
331 333 333 331 325 328 327 326 320 326 323 250 16 27 159 138 176 196 118 325 320 299 257 255 246 252 241 240 256 52 104 312 333 5 304 46 292 72 295 41 355 296 277 307 4 43 158 206 241 234 233 248 262 268 261 260 270 257 240 258 282 278 238 277 277 292 300 277 268 266 255 221 235 235 252 260 241 218 198 168 164 159 174 200 244 234 198 186
330 332 332 329 327 325 326 320 320 324 24 44 13 344 7 292 271 80 111 248 272 278 298 309 345 307 263 313 318 38 9 12 322 315 305 10 351 54 325 16 348 313 312 6 13 1 354 281 257 264 244 219 255 214 201 162 168 234 309 131 219 249 20 302 296 339 327 104 291 288 271 255 228 247 242 254 245 225 211 188 169 152 170 183 202 208 219 185
332 331 331 330 327 326 320 322 313 335 349 341 216 303 304 0 56 51 51 232 289 312 239 260 244 326 27 264 313 43 342 285 284 311 324 40 28 291 47 356 330 341 322 325 1 8 239 257 270 307 221 147 294 319 10 29 335 249 183 166 218 288 220 185 265 318 310 327 287 285 320 295 241 229 270 267 257 241 247 251 199 153 178 180 183 184 188 181
330 330 329 329 330 327 318 316 34 349 301 273 262 328 354 334 48 139 74 326 352 279 236 264 193 70 253 287 284 100 270 301 269 248 276 83 328 24 330 292 35 310 308 310 355 352 321 291 8 354 330 315 9 344 313 57 339 324 262 189 223 217 277 283 342 24 21 335 328 72 348 279 268 238 215 242 259 253 259 238 270 165 183 184 178 177 178 171
327 330 330 328 328 330 317 348 331 334 338 90 271 298 342 347 26 40 91 78 7 281 324 317 43 308 332 338 338 165 53 329 262 262 159 230 169 327 329 334 118 285 340 345 292 256 239 310 14 4 327 353 31 354 285 64 335 3 280 203 255 21 21 358 337 58 7 232 280 71 105 270 316 264 230 218 253 263 339 104 253 132 136 184 187 163 160 160
328 327 328 328 330 337 9 319 308 312 23 300 294 316 341 339 68 60 57 12 28 316 324 300 5 68 292 337 314 354 48 277 297 328 1 286 270 172 35 280 5 319 345 2 39 304 355 329 349 353 359 349 24 348 290 28 8 285 250 18 29 48 51 13 34 134 213 276 304 35 133 211 298 292 257 219 190 257 308 318 287 278 138 162 191 177 175 177
325 325 324 328 325 327 201 329 346 342 248 242 304 322 350 320 66 58 88 65 6 332 6 321 346 278 347 315 336 355 261 275 27 303 283 305 36 352 98 274 324 309 318 39 314 252 323 311 348 346 338 342 294 236 310 359 341 248 295 351 25 63 99 81 82 97 219 75 303 347 344 41 275 268 323 256 212 280 269 272 275 270 262 153 178 201 197 189
320 321 322 326 326 329 158 158 84 250 243 267 302 315 351 44 74 99 115 96 248 35 218 19 275 359 324 341 0 339 340 1 65 262 341 20 12 93 343 277 307 314 299 216 237 301 298 333 303 292 293 287 257 304 320 356 3 299 307 335 60 83 94 112 90 67 333 64 273 335 47 146 278 281 337 324 126 271 263 264 257 240 250 269 170 170 198 194
318 318 321 327 332 86 62 58 232 242 272 295 292 319 43 59 38 46 24 130 23 318 331 262 13 308 345 4 326 328 15 334 330 319 25 78 301 14 251 102 264 350 307 312 251 242 263 269 257 253 271 274 317 309 288 339 289 267 13 30 350 14 22 12 82 106 54 13 260 214 271 130 281 271 236 169 217 207 248 296 287 290 288 284 268 172 169 194
316 316 316 329 88 261 29 315 250 246 259 282 303 14 70 38 103 97 84 265 38 267 335 349 328 350 350 22 326 308 359 332 341 19 337 1 338 11 351 4 18 30 15 352 327 318 321 320 1 271 315 304 3 334 322 9 6 44 28 25 10 333 1 39 345 40 90 274 263 228 97 105 150 293 293 226 247 221 285 291 294 300 274 272 280 283 137 192
317 315 309 289 215 13 170 242 252 337 331 334 343 21 67 25 9 66 229 335 87 301 16 312 324 338 318 341 31 345 344 334 344 353 322 295 302 351 314 143 63 15 343 341 303 334 323 295 271 317 306 26 23 4 317 1 10 28 28 33 75 285 27 335 15 351 190 205 240 290 22 41 243 225 255 294 288 291 222 226 263 273 293 286 297 302 348 167
320 313 313 241 185 194 232 242 298 307 323 340 354 52 58 90 63 308 346 337 216 287 301 210 298 329 334 64 24 345 333 29 348 347 328 299 11 301 263 196 176 138 225 280 345 4 286 296 11 322 2 353 81 49 310 0 346 24 20 50 69 33 32 294 281 206 307 283 239 40 37 218 245 278 241 247 275 269 289 263 254 261 262 280 285 298 307 290
316 314 314 196 183 209 236 205 238 303 346 358 67 34 44 59 18 74 31 287 262 295 282 339 323 343 37 43 35 20 356 324 16 334 344 331 34 347 333 5 96 24 86 323 10 254 20 351 313 348 343 295 32 191 183 194 5 262 187 191 193 136 157 245 268 274 258 245 289 309 53 239 146 240 265 271 269 283 264 244 250 239 225 235 258 274 299 323
314 298 249 234 235 245 241 240 240 175 358 30 43 78 84 25 192 283 286 310 301 298 341 315 11 11 350 33 334 42 42 292 2 344 351 20 346 356 341 302 18 65 49 20 269 93 191 199 252 228 225 345 295 270 189 62 354 319 30 90 55 274 145 215 205 203 288 322 330 346 200 210 199 267 302 297 303 308 311 312 323 310 290 225 283 279 281 278
325 316 221 274 191 260 192 219 183 139 122 52 74 50 92 169 247 81 240 206 287 11 317 3 27 35 349 330 349 13 353 4 336 353 326 6 324 24 359 23 33 25 35 16 258 323 7 305 271 317 258 218 233 239 291 114 203 269 35 5 210 195 111 4 340 325 50 36 265 228 318 293 308 317 290 296 308 301 311 311 314 302 299 335 303 287 261 251
3 326 25 302 272 250 198 173 142 115 71 90 89 49 193 284 192 156 290 84 260 130 57 37 340 52 350 341 325 358 330 6 356 360 338 343 352 2 2 336 38 22 39 351 313 232 349 269 284 1 325 299 223 201 202 160 143 87 327 250 271 50 110 115 222 321 32 220 263 330 256 300 18 284 297 329 297 286 301 300 298 304 306 314 286 285 253 234
337 320 266 275 244 233 130 146 100 48 79 79 70 184 306 83 306 141 221 45 9 27 85 81 276 76 335 10 317 343 317 27 339 15 310 323 323 317 22 325 328 22 352 357 177 290 358 330 300 265 281 308 339 76 355 319 124 167 192 222 69 343 344 324 85 321 304 288 283 293 263 264 217 258 282 281 282 292 298 305 319 309 308 301 295 279 254 277
274 22 15 262 250 144 124 88 67 76 59 55 328 46 289 133 271 164 223 157 160 96 81 211 185 299 88 346 238 327 7 11 329 319 18 329 11 308 68 332 316 349 1 354 7 303 340 290 302 315 42 315 354 61 259 295 328 284 43 350 145 116 172 59 192 180 125 260 7 292 327 255 216 224 221 256 259 265 280 293 290 283 285 293 299 302 246 252
7 37 312 264 9 86 88 64 62 43 67 56 298 194 213 94 255 250 285 77 331 82 225 124 183 267 335 235 352 299 306 243 287 274 200 286 300 328 36 342 341 335 343 333 295 298 306 108 259 279 321 18 1 298 202 173 211 350 85 296 246 236 210 148 47 168 175 195 191 242 286 256 246 192 191 244 253 256 263 268 273 280 278 277 281 288 261 227
315 105 266 277 29 119 53 48 48 52 72 268 188 299 17 187 323 330 291 349 91 196 149 180 166 74 229 19 352 324 297 290 260 285 266 300 35 336 357 355 334 336 327 328 45 352 8 359 250 313 340 311 246 229 256 284 132 179 183 213 199 207 275 255 264 329 189 192 228 183 259 273 251 161 205 234 247 253 255 260 271 270 272 281 289 291 294 259
37 47 276 335 7 97 81 42 335 316 104 46 345 341 263 69 57 315 18 331 91 14 78 109 240 165 209 278 131 343 343 306 259 271 265 280 228 196 288 330 336 310 323 320 314 294 66 226 277 280 233 267 279 278 265 260 270 252 195 283 347 65 93 132 232 277 356 277 260 240 350 266 230 163 210 227 246 253 256 260 272 267 269 283 287 280 283 242
49 231 257 302 308 104 70 54 325 18 50 237 281 347 302 13 133 264 65 350 66 16 33 46 209 63 321 6 303 51 133 284 270 206 261 273 277 272 271 313 311 298 318 283 347 302 306 59 343 294 299 286 281 274 287 333 312 14 18 21 36 29 146 184 176 192 263 292 332 319 245 278 121 177 205 219 248 278 286 249 266 270 257 274 278 286 277 283
275 264 318 294 11 84 80 83 354 336 310 321 44 285 325 189 104 353 18 315 130 330 81 240 357 149 179 231 124 319 174 13 197 238 279 249 278 247 279 279 271 295 326 244 23 311 12 306 71 318 335 325 337 352 10 342 51 74 313 317 122 103 60 284 273 21 250 201 190 224 251 258 23 12 349 330 299 288 287 284 249 267 266 254 282 282 277 272
280 254 240 300 346 57 67 192 127 242 322 316 355 337 339 359 254 155 211 271 302 178 76 335 7 45 196 259 202 191 173 162 280 267 244 223 245 260 270 274 291 290 245 247 271 163 242 234 84 301 323 324 315 333 316 327 308 291 223 318 307 325 331 4 356 353 281 284 224 224 250 262 276 313 305 290 295 293 291 288 290 277 264 265 278 283 262 271
15 14 309 338 359 9 56 69 108 66 335 335 348 279 103 328 327 296 30 257 186 307 150 147 305 41 216 45 14 337 282 192 161 269 340 282 290 292 253 280 288 278 299 295 263 127 191 271 153 172 180 230 239 248 227 35 346 312 296 306 301 313 305 204 209 250 264 279 264 231 257 289 284 272 272 273 264 266 269 275 280 285 287 270 238 271 262 240
297 63 352 339 332 30 357 7 19 15 314 222 303 227 2 291 284 321 271 73 303 108 21 41 327 26 308 56 339 313 248 226 225 255 249 250 246 261 295 290 299 357 19 35 47 98 73 304 233 211 229 238 252 257 261 277 271 273 279 284 294 297 307 305 265 267 278 293 270 247 223 251 268 283 278 275 272 262 262 263 263 270 271 277 274 257 271 253
54 276 89 193 126 278 8 328 5 331 312 329 208 47 233 1 1 7 317 316 59 55 90 323 20 320 307 334 344 312 290 269 197 219 271 238 286 291 315 313 240 72 67 54 59 110 152 230 261 189 245 246 248 260 269 266 249 261 274 289 297 320 316 285 278 280 274 248 264 292 287 274 271 277 282 282 284 282 274 262 261 259 262 266 271 265 266 268
108 281 236 17 44 270 187 271 308 287 298 299 192 27 358 13 337 265 234 321 23 332 127 1 303 301 302 317 87 271 300 345 310 218 200 268 225 332 323 328 289 21 90 82 23 98 92 241 248 223 268 266 258 261 261 261 265 264 261 271 299 298 285 276 274 272 268 268 277 286 279 272 273 279 280 277 274 275 275 274 266 257 254 256 261 262 257 261
358 31 311 351 281 276 257 273 277 320 337 352 67 325 77 332 319 319 323 90 12 293 355 98 279 289 301 311 284 264 253 214 251 286 282 258 300 185 238 219 300 327 1 320 159 301 105 272 282 318 302 283 267 242 246 244 234 251 242 175 246 262 269 269 264 265 268 269 269 269 275 279 273 261 271 275 273 268 268 270 266 258 252 249 253 258 255 255
275 193 190 317 324 272 286 3 340 351 34 355 51 311 340 303 316 311 289 227 157 232 230 271 249 286 292 310 297 263 268 260 242 226 248 257 290 206 126 273 75 313 355 339 8 270 190 263 346 281 284 292 323 205 244 243 235 235 226 224 283 296 295 292 285 273 261 273 278 278 279 273 286 282 275 280 282 277 269 263 264 262 252 246 245 250 251 249
332 283 40 133 293 329 7 334 319 40 37 322 357 300 312 290 300 350 342 299 202 231 225 237 241 210 293 330 294 270 273 261 249 252 253 160 230 231 181 177 144 185 303 293 227 212 210 247 309 293 285 260 265 300 289 286 252 213 145 191 233 254 263 273 263 258 248 254 263 268 266 269 278 284 286 276 268 271 270 266 266 261 253 244 242 240 244 242